Weather History for Klawock, AK

Change the Weather History Date:

Sunday, February 16, 2014

  Actual Average Record
Temperature  
Mean Temperature 32 °F -  
Max Temperature 36 °F 40 °F 51 °F (1998)
Min Temperature 28 °F 30 °F 16 °F (2011)
Degree Days  
Heating Degree Days 33    
Moisture  
Dew Point 30 °F    
Average Humidity 89    
Maximum Humidity 96    
Minimum Humidity 79    
Precipitation  
Precipitation 0.12 in - - ()
Sea Level Pressure  
Sea Level Pressure 29.12 in    
Wind  
Wind Speed 4 mph (NE)    
Max Wind Speed 18 mph    
Max Gust Speed 23 mph    
Visibility 9 miles    
Events Snow    
Averages and records for this station are not official NWS values.
T = Trace of Precipitation, MM = Missing Value Source: NWS Daily Summary

Daily Weather History Graph

Daily Weather History Graph

Search for Another Location

Airport:

Trip Planner

Search our weather history database for the weather conditions in past years. The results will help you decide how hot, cold, wet, or windy it might be!

Date:

Astronomy

Feb. 16, 2014 Rise Set
Actual Time 7:13 AM AKST 5:00 PM AKST
Civil Twilight 6:35 AM AKST 5:38 PM AKST
Nautical Twilight 5:52 AM AKST 6:21 PM AKST
Astronomical Twilight 5:10 AM AKST 7:03 PM AKST
Moon 7:33 PM AKST (2/16) 7:22 AM AKST (2/16)
Length of Visible Light 11h 02m
Length of Day
9h 46m
Full, 97% of the Moon is Illuminated
Feb 16
Full
Feb 22
Last Quarter
Feb 28
New
Mar 8
First Quarter
Mar 16
Full

Hourly Weather History & Observations

Time (AKST) Temp. Windchill Dew Point Humidity Pressure Visibility Wind Dir Wind Speed Gust Speed Precip Events Conditions
12:17 AM 30.9 °F 27.5 °F 28.9 °F 92% 29.08 in 10.0 mi Variable 3.5 mph - 0.00 in   Overcast
12:53 AM 30.9 °F - 28.9 °F 92% 29.09 in 10.0 mi Calm Calm - 0.00 in   Overcast
1:53 AM 30.0 °F - 28.9 °F 96% 29.13 in 10.0 mi Calm Calm - N/A   Overcast
2:14 AM 30.0 °F - 28.9 °F 96% 29.15 in 10.0 mi Calm Calm - N/A   Overcast
3:53 AM 28.9 °F - 28.0 °F 96% 29.19 in 10.0 mi Calm Calm - N/A   Overcast
4:53 AM 30.0 °F - 28.0 °F 92% 29.22 in 10.0 mi Calm Calm - N/A   Overcast
5:53 AM 30.9 °F - 28.0 °F 89% 29.24 in 10.0 mi Calm Calm - 0.00 in   Overcast
6:53 AM 30.0 °F 26.5 °F 28.0 °F 92% 29.24 in 10.0 mi NE 3.5 mph - N/A   Partly Cloudy
7:53 AM 30.9 °F - 28.9 °F 92% 29.25 in 10.0 mi Calm Calm - N/A   Overcast
8:53 AM 32.0 °F - 28.9 °F 88% 29.25 in 10.0 mi Calm Calm - N/A   Scattered Clouds
9:53 AM 33.1 °F 26.1 °F 30.0 °F 89% 29.23 in 10.0 mi NE 8.1 mph - N/A   Clear
10:53 AM 35.1 °F 31.0 °F 30.0 °F 82% 29.23 in 10.0 mi NE 4.6 mph - N/A   Mostly Cloudy
11:53 AM 36.0 °F - 32.0 °F 86% 29.20 in 10.0 mi Calm Calm - N/A   Scattered Clouds
12:53 PM 35.1 °F 30.1 °F 32.0 °F 89% 29.17 in 10.0 mi NE 5.8 mph - N/A   Overcast
1:53 PM 35.1 °F 27.9 °F 30.9 °F 85% 29.12 in 6.0 mi ENE 9.2 mph - 0.04 in Snow Light Snow
2:31 PM 34.0 °F 23.8 °F 30.9 °F 89% 29.08 in 4.0 mi NNE 16.1 mph 23.0 mph 0.02 in Snow Light Snow
2:53 PM 35.1 °F 25.5 °F 30.0 °F 82% 29.08 in 5.0 mi NNE 15.0 mph - 0.03 in Snow Light Snow
3:53 PM 34.0 °F 25.5 °F 30.0 °F 85% 29.06 in 2.5 mi NE 11.5 mph - 0.03 in Snow Light Snow
4:04 PM 34.0 °F 24.6 °F 30.0 °F 85% 29.05 in 4.0 mi NE 13.8 mph 23.0 mph 0.00 in Snow Light Snow
4:53 PM 34.0 °F 23.0 °F 30.9 °F 89% 29.03 in 10.0 mi NNE 18.4 mph 23.0 mph 0.01 in   Overcast
5:53 PM 35.1 °F 27.9 °F 30.0 °F 82% 29.04 in 10.0 mi NNE 9.2 mph 17.3 mph N/A   Overcast
6:53 PM 36.0 °F 30.3 °F 30.0 °F 79% 29.04 in 10.0 mi Variable 6.9 mph - N/A   Overcast
7:53 PM 33.1 °F 27.7 °F 30.9 °F 92% 29.03 in 10.0 mi Variable 5.8 mph - N/A   Clear
8:53 PM 35.1 °F 30.1 °F 30.9 °F 85% 29.03 in 10.0 mi NE 5.8 mph - N/A   Overcast
9:53 PM 34.0 °F 25.5 °F 30.9 °F 89% 29.03 in 10.0 mi NNE 11.5 mph - N/A   Scattered Clouds
10:53 PM 35.1 °F 27.4 °F 32.0 °F 89% 29.03 in 10.0 mi NE 10.4 mph 19.6 mph N/A   Overcast
11:53 PM 35.1 °F 29.3 °F 32.0 °F 89% 29.05 in 10.0 mi NE 6.9 mph - 0.01 in   Mostly Cloudy